20050417,000025,205058,32.135568,-118.966548,5.0,15.976,33.085,41.726,1070.68,0.0,1.633,15.107,15.069, NaN,24.280,   NaN,13.93,1012.62,95.56,14.38,38.6,44.1,9.0,7.4,315.7,331.3,6.3,5.7,NaN, NaN,19.3,242.8,239.7,NaN,1113696026,1,10.5,000026,000026,242.6,32.135585,-118.966411,10.02,NaN,NaN,15.980, NaN,NaN,NaN, NaN, NaN
20050417,000055,205088,32.134777,-118.967913,4.6,15.931,33.117,41.721,1233.20,0.0,1.803,15.085,15.047, NaN,24.315,   NaN,13.98,1012.76,95.64,14.40,34.8,35.4,8.7,8.3,312.4,315.2,5.9,5.7,NaN, NaN,21.0,248.1,231.0,NaN,1113696056,1,10.3,000056,000056,241.9,32.134807,-118.967786,10.02,NaN,NaN,15.935, NaN,NaN,NaN, NaN, NaN
20050417,000125,205118,32.134040,-118.969288,4.8,15.912,33.123,41.709,1138.04,0.0,1.690,15.061,15.023, NaN,24.324,   NaN,13.97,1012.73,95.61,14.41,31.8,31.6,8.9,9.3,305.8,302.9,5.9,6.2,NaN, NaN,20.4,235.5,233.4,NaN,1113696086,1,10.1,000086,000086,242.1,32.134060,-118.969158,9.80,NaN,NaN,15.916, NaN,NaN,NaN, NaN, NaN
20050417,000155,205148,32.133297,-118.970678,5.1,15.892,33.130,41.698,1042.86,0.0,1.652,15.047,15.007, NaN,24.334,   NaN,14.03,1012.65,95.85,14.43,30.6,30.5,9.0,9.7,303.9,300.3,5.7,6.3,NaN, NaN,20.4,232.0,236.3,NaN,1113696116,1,10.3,000116,000116,241.6,32.133318,-118.970545,9.86,NaN,NaN,15.896, NaN,NaN,NaN, NaN, NaN
20050417,000225,205178,32.132542,-118.972063,4.9,15.869,33.138,41.686,1249.20,0.0,1.746,15.029,14.991, NaN,24.346,   NaN,14.01,1012.66,95.71,14.39,33.8,30.6,9.7,10.1,305.1,299.0,6.5,6.6,NaN, NaN,20.4,255.4,242.0,NaN,1113696146,1,10.1,000146,000146,242.1,32.132558,-118.971926,10.15,NaN,NaN,15.873, NaN,NaN,NaN, NaN, NaN
20050417,000255,205208,32.131785,-118.973425,5.0,15.858,33.132,41.668,1532.88,0.0,1.803,15.019,14.981, NaN,24.343,   NaN,14.02,1012.58,95.56,14.41,37.9,40.4,8.8,7.8,315.2,323.3,6.1,5.7,NaN, NaN,20.9,239.8,237.9,NaN,1113696176,1,9.7,000176,000176,242.6,32.131805,-118.973291,9.86,NaN,NaN,15.862, NaN,NaN,NaN, NaN, NaN
20050417,000325,205238,32.131005,-118.974785,5.1,15.835,33.137,41.652,2064.53,0.0,1.746,15.000,14.963, NaN,24.352,   NaN,14.14,1012.75,95.52,14.52,36.0,39.3,8.9,8.2,312.3,319.4,6.0,5.8,NaN, NaN,20.4,220.0,227.1,NaN,1113696206,1,10.2,000206,000206,242.6,32.131042,-118.974671,9.88,NaN,NaN,15.839, NaN,NaN,NaN, NaN, NaN
20050417,000355,205268,32.130260,-118.976165,4.7,15.810,33.139,41.631,946.62,0.0,1.708,14.985,14.945, NaN,24.359,   NaN,14.12,1012.69,95.56,14.50,33.5,34.3,8.9,8.9,308.4,308.7,5.9,5.9,NaN, NaN,20.4,236.7,231.4,NaN,1113696236,1,9.7,000236,000236,241.8,32.130310,-118.976055,9.99,NaN,NaN,15.814, NaN,NaN,NaN, NaN, NaN
20050417,000425,205298,32.129530,-118.977565,4.8,15.795,33.138,41.617,923.13,0.0,1.633,14.962,14.922, NaN,24.362,   NaN,14.05,1012.67,95.76,14.44,34.7,34.7,9.2,9.0,308.7,309.8,6.2,6.0,NaN, NaN,19.0,247.4,247.3,NaN,1113696266,1,10.0,000266,000266,241.6,32.129568,-118.977448,9.98,NaN,NaN,15.799, NaN,NaN,NaN, NaN, NaN
20050417,000455,205328,32.128768,-118.978951,4.7,15.783,33.133,41.599,984.71,0.0,1.671,14.943,14.902, NaN,24.361,   NaN,14.09,1012.56,95.94,14.46,38.2,41.5,8.9,7.9,315.1,324.9,6.3,5.8,NaN, NaN,21.5,233.9,232.9,NaN,1113696296,1,10.0,000296,000296,241.9,32.128792,-118.978823,10.05,NaN,NaN,15.787, NaN,NaN,NaN, NaN, NaN
20050417,000525,205358,32.128020,-118.980355,5.0,15.758,33.138,41.580,996.45,0.0,1.746,14.940,14.901, NaN,24.370,   NaN,14.21,1012.56,96.19,14.52,37.9,40.2,8.6,7.6,316.9,325.8,6.0,5.4,NaN, NaN,21.1,234.2,236.6,NaN,1113696326,1,10.2,000326,000326,241.2,32.128042,-118.980226,10.14,NaN,NaN,15.762, NaN,NaN,NaN, NaN, NaN
20050417,000555,205388,32.127267,-118.981756,4.9,15.749,33.130,41.564,1154.77,0.0,1.652,14.958,14.919, NaN,24.366,   NaN,14.27,1012.62,96.06,14.59,39.3,40.7,8.5,7.4,319.1,328.0,6.0,5.3,NaN, NaN,20.7,230.5,234.9,NaN,1113696356,1,10.4,000356,000356,242.1,32.127282,-118.981630,10.01,NaN,NaN,15.753, NaN,NaN,NaN, NaN, NaN
20050417,000626,205419,32.126470,-118.983190,5.2,15.750,33.112,41.545,1625.03,0.0,1.727,14.969,14.932, NaN,24.352,   NaN,14.19,1012.66,95.52,14.57,42.1,39.7,8.8,7.2,319.7,327.5,6.4,5.1,NaN, NaN,22.0,224.4,233.3,NaN,1113696387,1,9.9,000387,000387,242.7,32.126493,-118.983055,10.02,NaN,NaN,15.754, NaN,NaN,NaN, NaN, NaN
20050417,000656,205449,32.125722,-118.984586,5.0,15.712,33.131,41.530,1297.64,0.0,1.784,14.979,14.940, NaN,24.375,   NaN,14.19,1012.62,95.64,14.58,41.4,42.4,8.7,7.2,319.7,330.8,6.3,5.2,NaN, NaN,21.7,239.4,240.7,NaN,1113696417,1,10.2,000417,000417,241.9,32.125748,-118.984456,10.16,NaN,NaN,15.716, NaN,NaN,NaN, NaN, NaN
20050417,000726,205479,32.124972,-118.985986,5.2,15.692,33.132,41.512,1924.66,0.0,1.784,14.989,14.953, NaN,24.380,   NaN,14.22,1012.70,95.40,14.62,39.4,38.0,8.9,8.0,316.4,320.5,6.3,5.5,NaN, NaN,22.0,235.8,239.1,NaN,1113696447,1,10.2,000447,000447,242.2,32.124992,-118.985861,10.14,NaN,NaN,15.696, NaN,NaN,NaN, NaN, NaN
20050417,000755,205508,32.124243,-118.987336,5.0,15.682,33.125,41.495,1354.95,0.0,1.784,15.007,14.970, NaN,24.377,   NaN,14.23,1012.67,95.43,14.62,35.3,32.7,9.6,9.9,308.2,303.3,6.5,6.6,NaN, NaN,20.9,243.7,238.9,NaN,1113696476,1,10.3,000476,000476,242.9,32.124263,-118.987210,9.90,NaN,NaN,15.686, NaN,NaN,NaN, NaN, NaN
20050417,000825,205538,32.123498,-118.988741,4.7,15.688,33.104,41.477,961.66,0.0,1.803,15.024,14.987, NaN,24.359,   NaN,14.13,1012.80,95.61,14.54,37.8,35.3,9.7,9.1,310.7,310.4,6.8,6.1,NaN, NaN,22.0,240.3,239.5,NaN,1113696506,1,10.0,000506,000506,242.2,32.123513,-118.988613,10.25,NaN,NaN,15.692, NaN,NaN,NaN, NaN, NaN
20050417,000856,205569,32.122733,-118.990193,5.0,15.697,33.086,41.466,913.23,0.0,1.765,15.014,14.975, NaN,24.344,   NaN,14.09,1012.60,95.68,14.52,37.9,39.5,9.3,8.3,312.3,320.3,6.5,5.8,NaN, NaN,23.7,232.7,237.5,NaN,1113696537,1,10.1,000537,000537,241.5,32.122750,-118.990055,10.10,NaN,NaN,15.701, NaN,NaN,NaN, NaN, NaN
20050417,000926,205599,32.121985,-118.991600,4.7,15.706,33.065,41.450,990.58,0.0,1.765,14.996,14.957, NaN,24.325,   NaN,14.05,1012.63,95.73,14.45,42.8,48.3,8.8,7.0,321.0,339.3,6.5,5.7,NaN, NaN,23.0,243.4,248.6,NaN,1113696567,1,9.9,000567,000567,244.9,32.121992,-118.991463,10.24,NaN,NaN,15.710, NaN,NaN,NaN, NaN, NaN
20050417,000956,205629,32.121248,-118.993023,5.0,15.710,33.054,41.442,1208.96,0.0,1.576,14.976,14.935, NaN,24.316,   NaN,14.15,1012.72,95.91,14.53,40.0,42.7,8.7,7.3,320.1,332.8,6.2,5.4,NaN, NaN,22.1,236.4,235.1,NaN,1113696597,1,10.5,000597,000597,243.7,32.121265,-118.992890,10.23,NaN,NaN,15.714, NaN,NaN,NaN, NaN, NaN
20050417,001025,205658,32.120560,-118.994403,5.2,15.721,33.039,41.435,1165.23,0.0,1.520,14.957,14.918, NaN,24.302,   NaN,14.21,1012.57,95.88,14.54,35.6,33.4,9.2,9.3,310.4,308.1,6.1,6.0,NaN, NaN,23.3,234.1,240.4,NaN,1113696626,1,10.0,000626,000626,241.9,32.120572,-118.994280,10.08,NaN,NaN,15.725, NaN,NaN,NaN, NaN, NaN
20050417,001055,205688,32.119817,-118.995851,4.9,15.732,33.029,41.435,1573.47,0.0,1.727,14.948,14.909, NaN,24.292,   NaN,14.22,1012.68,95.68,14.57,31.9,30.6,9.8,10.6,303.9,299.0,6.3,6.9,NaN, NaN,23.7,232.3,235.5,NaN,1113696656,1,10.3,000656,000656,242.4,32.119835,-118.995721,10.31,NaN,NaN,15.736, NaN,NaN,NaN, NaN, NaN
20050417,001125,205718,32.119102,-118.997281,5.2,15.730,33.035,41.439,1341.98,0.0,1.822,14.943,14.903, NaN,24.297,   NaN,14.21,1012.74,95.51,14.58,30.5,29.9,9.7,10.6,302.6,297.8,6.1,6.9,NaN, NaN,22.1,227.4,232.9,NaN,1113696686,1,10.6,000686,000686,243.6,32.119120,-118.997155,9.78,NaN,NaN,15.734, NaN,NaN,NaN, NaN, NaN
20050417,001156,205749,32.118360,-118.998745,4.6,15.726,33.034,41.433,1058.09,0.0,1.841,14.951,14.914, NaN,24.297,   NaN,14.18,1012.84,95.61,14.54,32.7,31.7,9.1,9.2,307.9,305.7,5.9,5.9,NaN, NaN,24.0,261.6,243.2,NaN,1113696717,1,9.9,000717,000717,243.6,32.118368,-118.998615,10.03,NaN,NaN,15.730, NaN,NaN,NaN, NaN, NaN
20050417,001226,205779,32.117637,-119.000175,4.9,15.702,33.057,41.438,1014.20,0.0,1.841,14.967,14.931, NaN,24.320,   NaN,14.22,1012.66,95.80,14.57,35.6,32.9,9.4,9.2,310.5,307.9,6.3,6.0,NaN, NaN,22.8,237.4,237.8,NaN,1113696747,1,10.3,000747,000747,243.8,32.117657,-119.000043,9.98,NaN,NaN,15.706, NaN,NaN,NaN, NaN, NaN
20050417,001255,205808,32.116947,-119.001557,5.0,15.699,33.057,41.436,1304.82,0.0,1.690,14.965,14.925, NaN,24.321,   NaN,14.23,1012.77,95.62,14.61,36.4,35.0,9.5,8.7,310.9,314.4,6.4,5.7,NaN, NaN,24.1,222.7,237.3,NaN,1113696776,1,10.0,000776,000776,242.0,32.116965,-119.001430,10.21,NaN,NaN,15.703, NaN,NaN,NaN, NaN, NaN
20050417,001326,205839,32.116213,-119.003027,5.1,15.683,33.069,41.433,1271.62,0.0,1.576,14.933,14.894, NaN,24.334,   NaN,14.15,1012.77,95.32,14.54,33.0,33.4,9.8,10.2,304.2,303.1,6.4,6.9,NaN, NaN,23.2,221.6,235.0,NaN,1113696807,1,10.2,000807,000807,243.1,32.116232,-119.002900,10.09,NaN,NaN,15.687, NaN,NaN,NaN, NaN, NaN
20050417,001356,205869,32.115498,-119.004468,4.9,15.671,33.072,41.425,1364.78,0.0,1.576,14.906,14.869, NaN,24.339,   NaN,14.15,1012.71,95.45,14.54,36.9,34.9,9.3,8.7,311.9,313.8,6.4,5.7,NaN, NaN,23.1,244.2,245.2,NaN,1113696837,1,10.4,000837,000837,242.9,32.115513,-119.004335,10.13,NaN,NaN,15.675, NaN,NaN,NaN, NaN, NaN
20050417,001426,205899,32.114778,-119.005898,5.1,15.678,33.062,41.420,1052.81,0.0,1.576,14.898,14.859, NaN,24.329,   NaN,14.16,1012.74,95.57,14.54,37.7,35.2,8.8,8.3,316.2,316.4,6.0,5.4,NaN, NaN,23.4,231.1,235.6,NaN,1113696867,1,10.6,000867,000867,242.7,32.114792,-119.005770,10.11,NaN,NaN,15.682, NaN,NaN,NaN, NaN, NaN
20050417,001456,205929,32.114048,-119.007325,5.0,15.685,33.050,41.414,850.51,0.0,1.614,14.882,14.844, NaN,24.319,   NaN,14.14,1012.73,95.57,14.53,38.4,39.4,9.3,8.2,314.3,321.0,6.4,5.7,NaN, NaN,23.7,246.7,236.8,NaN,1113696897,1,10.1,000897,000897,243.8,32.114063,-119.007193,9.94,NaN,NaN,15.689, NaN,NaN,NaN, NaN, NaN
20050417,001526,205959,32.113338,-119.008753,5.1,15.684,33.046,41.408,899.53,0.0,1.652,14.878,14.838, NaN,24.315,   NaN,14.15,1012.74,95.81,14.51,40.5,39.5,8.8,7.7,319.2,325.1,6.2,5.3,NaN, NaN,23.5,237.7,236.9,NaN,1113696927,1,10.5,000927,000927,243.7,32.113352,-119.008618,9.96,NaN,NaN,15.688, NaN,NaN,NaN, NaN, NaN
20050417,001556,205989,32.112630,-119.010188,4.6,15.657,33.066,41.406,920.05,0.0,1.746,14.889,14.852, NaN,24.337,   NaN,14.18,1012.79,95.75,14.53,33.5,31.9,9.0,9.5,309.9,305.3,5.8,6.1,NaN, NaN,24.3,245.9,244.5,NaN,1113696957,1,10.1,000957,000957,242.6,32.112642,-119.010060,10.09,NaN,NaN,15.661, NaN,NaN,NaN, NaN, NaN
20050417,001626,206019,32.111897,-119.011620,5.0,15.634,33.083,41.403,1023.00,0.0,1.803,14.912,14.879, NaN,24.356,   NaN,14.18,1012.69,95.72,14.54,29.9,30.3,9.6,10.5,302.8,299.2,6.0,6.9,NaN, NaN,23.1,256.0,238.5,NaN,1113696987,1,10.5,000987,000987,243.7,32.111907,-119.011490,9.99,NaN,NaN,15.638, NaN,NaN,NaN, NaN, NaN
20050417,001657,206050,32.111185,-119.013043,4.9,15.629,33.089,41.405,922.84,0.0,1.803,14.929,14.893, NaN,24.361,   NaN,14.18,1012.78,95.74,14.53,30.5,29.5,9.6,10.5,302.4,297.1,6.1,6.8,NaN, NaN,24.1,245.8,239.6,NaN,1113697017,1,10.3,001017,001017,243.2,32.111200,-119.012917,10.17,NaN,NaN,15.633, NaN,NaN,NaN, NaN, NaN
20050417,001726,206079,32.110468,-119.014478,4.9,15.606,33.096,41.391,819.79,0.0,1.916,14.957,14.922, NaN,24.372,   NaN,14.20,1012.78,95.85,14.55,31.9,30.0,9.9,10.7,303.4,297.5,6.4,7.0,NaN, NaN,24.1,234.4,239.0,NaN,1113697047,1,9.8,001047,001047,242.6,32.110485,-119.014353,10.17,NaN,NaN,15.610, NaN,NaN,NaN, NaN, NaN
20050417,001756,206109,32.109738,-119.015903,4.8,15.608,33.086,41.382,921.59,0.0,1.935,14.988,14.953, NaN,24.363,   NaN,14.20,1012.79,95.87,14.55,30.8,33.7,9.6,10.1,303.2,304.8,6.1,6.8,NaN, NaN,23.7,246.7,239.2,NaN,1113697077,1,10.2,001077,001077,244.1,32.109753,-119.015772,10.10,NaN,NaN,15.612, NaN,NaN,NaN, NaN, NaN
20050417,001826,206139,32.109023,-119.017333,4.9,15.617,33.069,41.371,1164.25,0.0,1.803,15.011,14.979, NaN,24.348,   NaN,14.19,1012.70,95.51,14.59,33.4,31.6,9.6,10.1,306.7,302.1,6.3,6.6,NaN, NaN,24.1,235.9,239.7,NaN,1113697107,1,10.4,001107,001107,242.7,32.109037,-119.017210,10.19,NaN,NaN,15.621, NaN,NaN,NaN, NaN, NaN
20050417,001857,206170,32.108290,-119.018778,4.9,15.638,33.044,41.363,792.67,0.0,1.841,15.027,14.993, NaN,24.325,   NaN,14.22,1012.72,95.86,14.57,36.2,31.6,9.8,10.2,309.7,302.2,6.7,6.7,NaN, NaN,24.6,253.7,237.2,NaN,1113697137,1,10.5,001137,001137,243.6,32.108300,-119.018648,10.34,NaN,NaN,15.642, NaN,NaN,NaN, NaN, NaN
20050417,001927,206200,32.107560,-119.020233,5.0,15.656,33.025,41.358,757.80,0.0,1.784,15.038,15.002, NaN,24.306,   NaN,14.19,1012.70,95.75,14.56,34.7,33.8,9.7,9.3,308.6,311.0,6.5,6.2,NaN, NaN,23.3,241.9,238.4,NaN,1113697167,1,10.6,001167,001167,243.4,32.107578,-119.020105,10.43,NaN,NaN,15.660, NaN,NaN,NaN, NaN, NaN
20050417,001956,206229,32.106863,-119.021642,4.9,15.669,33.014,41.358,916.11,0.0,1.708,15.043,15.007, NaN,24.294,   NaN,14.19,1012.76,95.92,14.54,33.1,32.7,9.3,9.3,308.3,308.9,5.9,5.9,NaN, NaN,25.1,244.6,239.7,NaN,1113697197,1,9.9,001196,001197,243.2,32.106857,-119.021553,10.37,NaN,NaN,15.673, NaN,NaN,NaN, NaN, NaN
20050417,002026,206259,32.106125,-119.023123,4.5,15.706,32.982,41.357,847.00,0.0,1.746,15.037,15.000, NaN,24.262,   NaN,14.25,1012.71,95.99,14.56,29.4,31.4,9.4,9.9,303.4,303.7,5.8,6.4,NaN, NaN,26.0,234.2,239.9,NaN,1113697227,1,10.0,001227,001227,242.2,32.106142,-119.022997,10.12,NaN,NaN,15.710, NaN,NaN,NaN, NaN, NaN
20050417,002056,206289,32.105415,-119.024573,4.7,15.713,32.981,41.362,843.91,0.0,1.765,15.009,14.972, NaN,24.259,   NaN,14.19,1012.65,95.81,14.55,29.4,33.0,9.5,10.2,302.1,304.2,5.9,6.8,NaN, NaN,25.0,230.8,244.5,NaN,1113697257,1,10.0,001257,001257,242.8,32.105430,-119.024440,10.16,NaN,NaN,15.717, NaN,NaN,NaN, NaN, NaN
20050417,002126,206319,32.104682,-119.026007,4.9,15.739,32.970,41.374,835.39,0.0,1.746,14.980,14.941, NaN,24.245,   NaN,14.14,1012.63,95.71,14.54,29.6,33.3,9.4,10.1,303.2,304.9,5.8,6.7,NaN, NaN,25.6,231.1,239.6,NaN,1113697287,1,9.9,001287,001287,243.1,32.104700,-119.025872,10.11,NaN,NaN,15.743, NaN,NaN,NaN, NaN, NaN
20050417,002156,206349,32.103958,-119.027443,4.6,15.748,32.973,41.386,812.52,0.0,1.746,14.946,14.907, NaN,24.245,   NaN,14.11,1012.82,95.84,14.49,30.0,33.4,9.3,9.9,304.2,305.9,5.8,6.6,NaN, NaN,25.5,231.5,241.4,NaN,1113697317,1,10.0,001317,001317,243.2,32.103977,-119.027318,10.18,NaN,NaN,15.752, NaN,NaN,NaN, NaN, NaN
20050417,002226,206379,32.103228,-119.028882,4.9,15.753,32.981,41.399,1023.40,0.0,1.841,14.925,14.886, NaN,24.250,   NaN,14.18,1012.56,95.94,14.53,29.5,32.5,9.4,10.0,303.5,304.6,5.9,6.7,NaN, NaN,25.3,243.2,244.2,1113697347,1113697347,1,10.3,001347,001347,244.2,32.103248,-119.028737,9.93,NaN,NaN,15.757, NaN,NaN,NaN, NaN, NaN
20050417,002257,206410,32.102497,-119.030295,4.7,15.751,32.994,41.413,823.50,0.0,1.954,14.947,14.913, NaN,24.261,   NaN,14.16,1012.68,95.81,14.53,32.0,32.9,10.1,10.7,303.5,302.5,6.8,7.4,NaN, NaN,19.0,244.6,236.1,NaN,1113697377,1,10.4,001377,001377,243.2,32.102508,-119.030147,10.43,NaN,NaN,15.755, NaN,NaN,NaN, NaN, NaN
20050417,002326,206439,32.101773,-119.031707,4.9,15.734,33.019,41.425,660.24,0.0,1.803,14.980,14.946, NaN,24.284,   NaN,14.07,1012.67,95.75,14.46,38.0,37.6,9.8,9.2,311.9,314.4,7.0,6.5,NaN, NaN,18.4,239.0,239.9,NaN,1113697407,1,10.2,001407,001407,243.0,32.101783,-119.031563,9.89,NaN,NaN,15.738, NaN,NaN,NaN, NaN, NaN
20050417,002356,206469,32.101038,-119.033120,4.8,15.699,33.056,41.433,693.40,0.0,1.803,15.008,14.975, NaN,24.320,   NaN,14.11,1012.70,96.00,14.46,40.1,38.7,9.0,7.9,318.2,323.4,6.4,5.4,NaN, NaN,17.2,253.6,242.6,NaN,1113697437,1,10.4,001437,001437,243.8,32.101043,-119.032972,10.09,NaN,NaN,15.703, NaN,NaN,NaN, NaN, NaN
20050417,002426,206499,32.100318,-119.034512,4.9,15.675,33.078,41.436,735.19,0.0,1.822,15.057,15.020, NaN,24.342,   NaN,14.19,1012.79,96.18,14.51,37.6,37.4,8.7,7.9,316.8,320.7,6.0,5.4,NaN, NaN,19.2,239.6,238.0,NaN,1113697467,1,9.9,001467,001467,242.6,32.100332,-119.034368,10.14,NaN,NaN,15.679, NaN,NaN,NaN, NaN, NaN
20050417,002456,206529,32.099588,-119.035913,5.0,15.653,33.094,41.432,770.82,0.0,1.784,15.077,15.045, NaN,24.360,   NaN,14.16,1012.76,95.93,14.53,30.8,33.0,8.9,9.3,306.6,307.7,5.6,6.2,NaN, NaN,18.6,231.2,235.8,NaN,1113697497,1,10.1,001497,001497,242.2,32.099607,-119.035772,10.06,NaN,NaN,15.657, NaN,NaN,NaN, NaN, NaN
20050417,002526,206559,32.098853,-119.037300,5.0,15.670,33.073,41.426,819.57,0.0,1.803,15.105,15.072, NaN,24.340,   NaN,14.14,1012.72,95.96,14.50,32.8,30.2,9.5,10.1,305.7,299.5,6.3,6.6,NaN, NaN,18.6,234.9,232.6,NaN,1113697527,1,9.9,001527,001527,243.6,32.098868,-119.037155,10.02,NaN,NaN,15.674, NaN,NaN,NaN, NaN, NaN
20050417,002556,206589,32.098150,-119.038713,4.9,15.684,33.052,41.415,1206.60,0.0,1.822,15.113,15.079, NaN,24.320,   NaN,14.14,1012.73,95.84,14.51,36.9,36.6,9.3,8.4,312.7,317.9,6.4,5.7,NaN, NaN,17.4,243.2,240.7,NaN,1113697557,1,10.0,001557,001557,243.6,32.098160,-119.038567,10.03,NaN,NaN,15.688, NaN,NaN,NaN, NaN, NaN
20050417,002626,206619,32.097398,-119.040113,5.0,15.726,33.011,41.409,1142.42,0.0,1.859,15.066,15.029, NaN,24.279,   NaN,14.14,1012.76,95.52,14.52,39.2,38.0,9.1,8.1,315.8,321.0,6.4,5.6,NaN, NaN,18.6,243.7,233.5,NaN,1113697587,1,10.0,001587,001587,242.7,32.097420,-119.039973,10.18,NaN,NaN,15.730, NaN,NaN,NaN, NaN, NaN
20050417,002656,206649,32.096698,-119.041542,4.7,15.768,32.981,41.414,673.27,0.0,1.897,15.012,14.975, NaN,24.247,   NaN,14.06,1012.85,95.64,14.45,42.6,43.1,9.0,7.6,320.1,329.3,6.6,5.6,NaN, NaN,17.6,247.3,242.2,NaN,1113697617,1,10.0,001617,001617,243.4,32.096708,-119.041395,10.08,NaN,NaN,15.772, NaN,NaN,NaN, NaN, NaN
20050417,002726,206679,32.095983,-119.042970,4.7,15.799,32.954,41.413,626.42,0.0,1.822,14.975,14.938, NaN,24.219,   NaN,14.00,1012.78,95.87,14.39,36.5,36.6,8.5,7.8,316.2,320.1,5.7,5.2,NaN, NaN,16.6,247.3,246.5,NaN,1113697647,1,10.4,001647,001647,242.9,32.095990,-119.042827,10.12,NaN,NaN,15.803, NaN,NaN,NaN, NaN, NaN
20050417,002757,206710,32.095240,-119.044355,4.7,15.808,32.960,41.428,727.99,0.0,1.841,14.963,14.926, NaN,24.222,   NaN,14.04,1012.75,95.98,14.37,39.1,37.5,8.9,8.1,316.6,318.3,6.3,5.5,NaN, NaN,19.0,239.8,237.9,NaN,1113697677,1,9.8,001677,001677,241.9,32.095255,-119.044218,10.06,NaN,NaN,15.812, NaN,NaN,NaN, NaN, NaN
20050417,002826,206739,32.094535,-119.045778,4.6,15.818,32.964,41.442,760.40,0.0,1.859,14.979,14.945, NaN,24.223,   NaN,14.05,1012.87,95.91,14.40,38.1,41.7,9.1,7.9,315.4,326.0,6.4,5.7,NaN, NaN,17.9,246.2,242.3,NaN,1113697707,1,9.9,001707,001707,243.6,32.094550,-119.045647,9.90,NaN,NaN,15.822, NaN,NaN,NaN, NaN, NaN
20050417,002856,206769,32.093803,-119.047177,5.0,15.780,33.009,41.457,697.78,0.0,1.765,15.001,14.968, NaN,24.266,   NaN,13.90,1012.72,95.59,14.31,41.5,45.9,9.1,7.4,318.7,334.1,6.6,5.7,NaN, NaN,19.1,238.0,234.5,NaN,1113697737,1,9.5,001737,001737,241.9,32.093818,-119.047038,10.19,NaN,NaN,15.784, NaN,NaN,NaN, NaN, NaN
20050417,002927,206800,32.093082,-119.048602,5.2,15.751,33.047,41.473,757.71,0.0,1.784,15.007,14.973, NaN,24.302,   NaN,13.86,1012.80,95.78,14.26,47.6,50.6,7.9,6.5,333.0,345.4,6.3,5.5,NaN, NaN,17.2,232.5,234.5,NaN,1113697767,1,10.2,001767,001767,243.6,32.093095,-119.048467,10.09,NaN,NaN,15.755, NaN,NaN,NaN, NaN, NaN
20050417,002956,206829,32.092362,-119.050037,4.7,15.705,33.095,41.483,907.48,0.0,1.784,15.001,14.965, NaN,24.349,   NaN,13.91,1012.87,95.89,14.27,42.8,48.1,7.6,6.4,330.2,344.4,5.6,5.2,NaN, NaN,18.9,239.3,244.3,NaN,1113697797,1,9.7,001797,001797,243.9,32.092380,-119.049893,10.25,NaN,NaN,15.709, NaN,NaN,NaN, NaN, NaN
20050417,003026,206859,32.091665,-119.051475,4.7,15.692,33.099,41.476,1194.97,0.0,1.841,14.983,14.946, NaN,24.355,   NaN,14.06,1012.78,96.00,14.38,33.9,36.2,8.7,8.7,312.5,315.7,5.6,5.9,NaN, NaN,18.0,238.7,242.8,NaN,1113697827,1,9.9,001827,001827,242.6,32.091672,-119.051338,10.39,NaN,NaN,15.696, NaN,NaN,NaN, NaN, NaN
20050417,003056,206889,32.090948,-119.052915,4.5,15.700,33.085,41.468,1410.72,0.0,1.803,14.965,14.927, NaN,24.342,   NaN,14.02,1012.93,95.36,14.42,32.7,32.5,9.5,10.2,306.1,302.9,6.2,6.7,NaN, NaN,17.6,241.4,248.7,NaN,1113697857,1,9.7,001857,001857,243.1,32.090948,-119.052772,10.35,NaN,NaN,15.704, NaN,NaN,NaN, NaN, NaN
20050417,003126,206919,32.090222,-119.054342,5.2,15.715,33.063,41.456,1360.17,0.0,1.803,14.956,14.920, NaN,24.322,   NaN,13.96,1012.72,95.34,14.34,33.8,33.7,9.4,9.5,308.6,308.3,6.1,6.2,NaN, NaN,17.7,226.8,236.5,NaN,1113697887,1,10.4,001887,001887,243.0,32.090225,-119.054198,10.14,NaN,NaN,15.719, NaN,NaN,NaN, NaN, NaN
20050417,003156,206949,32.089503,-119.055762,5.0,15.715,33.056,41.449,1150.86,0.0,1.859,14.963,14.927, NaN,24.317,   NaN,13.99,1012.81,95.46,14.36,34.7,32.0,8.8,9.0,312.3,307.6,5.7,5.7,NaN, NaN,18.5,240.6,237.7,NaN,1113697917,1,9.8,001917,001917,243.6,32.089508,-119.055622,10.23,NaN,NaN,15.719, NaN,NaN,NaN, NaN, NaN
20050417,003226,206979,32.088793,-119.057190,4.9,15.711,33.056,41.445,673.99,0.0,1.784,14.975,14.939, NaN,24.318,   NaN,13.89,1012.81,95.49,14.28,35.4,34.2,9.0,8.8,312.2,312.2,5.9,5.7,NaN, NaN,18.2,239.6,241.4,NaN,1113697947,1,10.2,001947,001947,242.6,32.088798,-119.057050,10.41,NaN,NaN,15.715, NaN,NaN,NaN, NaN, NaN
20050417,003256,207009,32.088048,-119.058602,5.0,15.701,33.061,41.441,606.69,0.0,1.690,14.977,14.939, NaN,24.323,   NaN,13.84,1012.82,95.72,14.21,37.7,39.3,9.0,8.0,314.9,322.5,6.1,5.6,NaN, NaN,18.0,231.6,232.4,NaN,1113697977,1,9.8,001977,001977,242.6,32.088063,-119.058462,10.27,NaN,NaN,15.705, NaN,NaN,NaN, NaN, NaN
20050417,003326,207039,32.087345,-119.059983,4.8,15.686,33.071,41.439,592.39,0.0,1.595,14.987,14.952, NaN,24.335,   NaN,13.80,1012.99,95.65,14.17,43.2,44.5,8.4,6.8,323.6,336.8,6.2,5.2,NaN, NaN,18.0,249.7,241.5,NaN,1113698007,1,9.6,002007,002007,244.4,32.087360,-119.059845,10.30,NaN,NaN,15.690, NaN,NaN,NaN, NaN, NaN
20050417,003356,207069,32.086652,-119.061397,4.7,15.674,33.078,41.435,621.45,0.0,1.501,14.998,14.963, NaN,24.342,   NaN,13.91,1012.89,96.17,14.21,38.4,41.7,8.1,6.8,320.5,334.9,5.5,5.0,NaN, NaN,18.3,256.4,241.3,NaN,1113698037,1,9.8,002037,002037,243.7,32.086673,-119.061257,10.30,NaN,NaN,15.678, NaN,NaN,NaN, NaN, NaN
20050417,003426,207099,32.085943,-119.062798,5.0,15.677,33.070,41.428,669.33,0.0,1.557,15.001,14.967, NaN,24.336,   NaN,13.97,1012.86,96.01,14.29,33.7,34.4,8.7,8.8,311.0,311.0,5.6,5.8,NaN, NaN,18.2,247.7,235.6,NaN,1113698067,1,10.2,002067,002067,242.7,32.085962,-119.062667,10.12,NaN,NaN,15.681, NaN,NaN,NaN, NaN, NaN
20050417,003457,207130,32.085245,-119.064210,4.7,15.684,33.059,41.423,710.41,0.0,1.671,15.007,14.974, NaN,24.326,   NaN,13.95,1012.98,95.78,14.30,33.0,31.2,8.8,9.6,309.2,303.3,5.7,6.2,NaN, NaN,15.8,264.4,239.7,NaN,1113698097,1,10.0,002097,002097,244.2,32.085245,-119.064072,9.99,NaN,NaN,15.688, NaN,NaN,NaN, NaN, NaN
20050417,003526,207159,32.084547,-119.065598,4.8,15.692,33.045,41.415,697.50,0.0,1.708,15.007,14.974, NaN,24.313,   NaN,13.79,1012.79,95.49,14.17,29.6,29.7,9.3,10.3,301.2,296.2,5.8,6.8,NaN, NaN,17.6,252.4,246.7,NaN,1113698127,1,10.0,002127,002127,243.2,32.084555,-119.065465,10.10,NaN,NaN,15.696, NaN,NaN,NaN, NaN, NaN
20050417,003556,207189,32.083825,-119.066990,5.0,15.701,33.034,41.411,696.53,0.0,1.784,15.002,14.969, NaN,24.303,   NaN,13.83,1012.87,95.91,14.19,31.6,30.9,8.9,9.8,306.7,301.5,5.7,6.4,NaN, NaN,17.4,223.4,233.7,NaN,1113698157,1,10.5,002157,002157,243.3,32.083832,-119.066858,10.09,NaN,NaN,15.705, NaN,NaN,NaN, NaN, NaN
20050417,003626,207219,32.083112,-119.068403,5.1,15.713,33.024,41.411,635.12,0.0,1.765,15.010,14.978, NaN,24.292,   NaN,13.82,1012.80,95.88,14.16,31.1,29.9,9.0,9.9,305.8,299.9,5.6,6.3,NaN, NaN,18.7,234.0,235.0,NaN,1113698187,1,10.1,002187,002187,243.1,32.083110,-119.068268,10.19,NaN,NaN,15.717, NaN,NaN,NaN, NaN, NaN
20050417,003656,207249,32.082393,-119.069805,4.9,15.716,33.026,41.416,593.25,0.0,1.746,15.021,14.989, NaN,24.293,   NaN,13.77,1012.77,95.87,14.16,31.0,30.0,8.8,9.8,306.8,301.0,5.5,6.2,NaN, NaN,17.1,239.3,240.9,NaN,1113698217,1,10.0,002217,002217,243.4,32.082402,-119.069672,10.08,NaN,NaN,15.720, NaN,NaN,NaN, NaN, NaN
20050417,003726,207279,32.081665,-119.071210,4.9,15.719,33.025,41.417,738.07,0.0,1.557,15.023,14.988, NaN,24.292,   NaN,13.75,1012.87,95.87,14.15,32.5,32.3,8.9,9.6,308.8,305.2,5.7,6.3,NaN, NaN,17.6,234.7,239.8,NaN,1113698247,1,10.2,002247,002247,243.7,32.081668,-119.071075,10.27,NaN,NaN,15.723, NaN,NaN,NaN, NaN, NaN